Location: Arbon
(43.0005°N, 0.7472°E)
Time: 09:39:37
(UTC+00:00)

Vanguard 2 Rocket - Pass Details

Date: 26 November 2020
Orbit: 554 x 3325 km, 32.9° (Epoch: 21 January)

Event Time Altitude Azimuth Distance (km) Brightness Sun altitude
Rises 07:01:37 0° 216° (SW) 7,064 11.4 -1.1°
Reaches altitude 10° 07:06:48 10° 209° (SSW) 6,201 11.2 -0.3°
Maximum altitude 07:24:02 37° 151° (SSE) 4,257 11.1 2.4°
Drops below altitude 10° 07:38:29 10° 92° (E) 5,268 11.9 4.6°
Sets 07:42:24 0° 85° (E) 5,943 11.9 5.2°
